EHI
4 4 5 5 3 1 1 3 3 1 0 0 0 1 2 3 4 5 8 11 10 6 3 1 2 3 5 6 6 5 4 3 3 4 5 5 4 3 3 3 2 1 0
4 4 5 4 2 1 1 2 2 1 1 1 1 2 2 3 5 6 8 10 10 7 5 4 4 5 5 6 6 5 4 4 4 4 5 4 4 3 3 3 3 2 1
3 3 2 2 1 1 2 2 2 1 2 4 4 4 3 4 6 8 9 10 10 9 9 9 8 6 5 4 4 4 6 6 6 6 6 5 4 4 4 4 3 2 2
1 1 0 0 1 1 2 3 4 3 4 5 6 5 5 6 7 8 9 11 12 12 12 13 12 8 5 3 3 4 6 7 7 7 7 6 6 6 6 5 4 3 2
0 0 0 0 0 1 2 4 5 6 6 6 6 6 6 7 8 8 9 11 12 12 12 13 13 11 7 3 3 5 5 6 6 7 8 8 7 7 6 6 6 5 4
1 0 0 1 1 2 4 5 6 7 7 7 7 6 5 6 7 7 7 8 9 8 8 9 10 9 6 3 3 5 6 6 5 5 7 8 7 7 7 7 6 6 6
2 1 1 2 3 4 5 6 7 6 7 7 6 4 2 2 3 3 3 4 5 5 4 5 6 5 4 2 2 4 5 6 6 6 7 8 7 7 8 7 6 6 6
2 2 2 2 3 4 5 6 7 6 5 5 4 2 0 0 0 1 1 1 2 2 1 1 3 5 5 4 3 4 5 6 6 6 7 8 8 8 8 6 5 5 4
2 2 2 1 1 2 4 5 6 5 4 4 3 2 1 0 0 0 0 0 1 1 0 0 2 5 6 6 5 4 4 3 2 3 4 6 8 8 7 6 5 6 5
2 1 1 2 2 3 4 4 4 4 3 3 3 4 4 2 1 0 1 1 1 2 1 0 1 3 4 5 5 4 2 1 0 0 1 3 5 6 5 4 4 7 8
2 1 2 5 6 6 6 5 5 5 3 3 3 3 4 3 1 1 1 2 2 2 2 1 1 1 3 4 4 3 2 1 0 0 0 1 2 3 3 2 3 5 8
3 2 3 6 8 7 7 8 9 8 7 5 4 4 3 2 2 2 2 2 2 2 3 3 2 3 4 4 3 3 2 1 0 0 0 1 2 2 3 4 3 3 5
3 4 4 6 7 7 8 10 11 11 11 9 8 7 6 5 6 7 6 4 3 3 4 5 4 3 4 5 5 3 1 1 0 0 0 0 1 2 3 4 3 2 3
5 5 6 6 7 8 10 11 11 12 13 11 9 9 9 10 12 12 11 9 6 5 5 6 5 3 5 6 6 4 3 2 1 0 0 0 0 1 1 1 1 1 1
7 6 6 6 8 11 14 14 13 13 14 13 12 13 13 13 15 16 15 14 11 8 7 7 7 6 6 7 7 7 6 4 1 0 0 0 0 0 0 0 0 0 0
10 8 7 7 9 12 16 17 15 16 16 17 18 19 19 17 16 16 18 19 17 13 10 10 10 10 10 9 9 9 8 5 2 0 0 0 0 0 0 0 0 0 0
12 11 11 10 9 11 16 18 16 16 18 20 21 23 23 22 20 18 19 21 21 19 15 12 11 12 13 12 11 10 9 7 4 2 1 0 0 0 0 0 0 0 0
12 13 14 14 12 12 15 17 16 15 17 20 22 24 24 25 26 24 23 22 22 21 19 16 13 14 15 14 13 11 8 6 4 2 2 1 0 0 0 0 0 0 0
11 13 14 15 14 14 15 16 16 15 16 19 22 24 25 27 30 30 26 23 22 21 21 19 16 15 15 14 13 11 7 5 3 2 2 1 0 0 0 0 0 0 0
10 12 14 14 13 13 13 14 15 15 16 18 21 25 26 26 28 28 25 24 23 22 21 20 17 16 15 14 14 11 8 6 5 3 2 0 0 0 0 0 0 0 0
10 11 13 13 11 10 11 11 12 14 17 19 22 25 26 25 23 19 16 16 18 19 19 18 18 18 17 15 13 11 8 7 6 5 3 1 0 0 0 0 0 0 0
12 13 14 14 12 9 6 5 6 11 16 21 23 26 26 24 18 12 7 6 8 11 14 17 19 19 18 15 13 11 9 8 7 7 5 2 1 1 1 0 0 0 0
18 17 18 18 17 12 5 1 2 7 14 20 23 26 26 24 19 15 10 6 6 6 9 13 17 17 17 16 14 13 12 11 10 10 8 5 2 2 1 0 0 0 0
21 21 21 21 21 16 7 2 3 7 13 17 20 23 24 23 20 17 16 14 13 10 7 8 10 12 13 13 15 15 15 13 11 10 9 7 4 2 1 1 0 0 0
21 21 21 21 21 17 10 4 5 9 14 15 16 18 18 17 14 12 13 16 16 14 9 5 4 5 5 6 9 13 15 13 11 9 10 9 5 3 2 2 2 1 0
20 20 21 20 18 16 11 6 6 11 15 14 15 16 13 10 8 7 9 12 13 13 10 5 3 2 1 1 4 9 14 14 11 9 10 11 7 4 3 3 3 2 1
Wind_Speed
3 3 2 1 2 2 2 2 1 1 2 3 2 2 2 2 2 2 3 9 9 8 8 8 8 8 9 9 9 9 10 10 9 10 10 10 10 10 10 10 9 9 9
2 2 2 2 1 1 1 1 1 2 2 2 2 2 3 3 2 3 2 6 10 9 8 8 8 8 9 9 9 9 9 10 10 10 11 11 11 11 10 10 10 9 9
2 2 2 2 1 1 1 2 2 2 3 2 3 3 3 3 3 3 4 3 5 10 10 8 8 8 8 9 9 9 8 9 9 10 10 11 11 11 11 11 10 10 9
2 2 1 1 1 1 1 2 2 2 2 2 2 2 2 3 4 4 4 4 3 4 7 10 9 8 8 8 9 9 9 9 9 10 11 12 12 11 11 11 11 11 10
2 2 1 1 2 1 1 2 1 2 2 2 3 3 3 3 3 4 3 4 4 4 4 7 10 8 8 8 9 9 9 8 9 11 11 12 12 11 11 11 12 12 11
2 2 2 2 2 1 1 1 1 2 2 2 3 2 3 3 3 3 4 3 3 5 4 4 5 7 9 8 8 8 9 9 8 10 11 11 11 12 12 13 13 12 12
1 2 1 2 2 1 1 1 2 2 2 2 3 3 3 3 2 2 3 3 3 4 3 4 4 3 4 9 8 8 9 9 8 9 9 10 11 12 13 14 13 13 13
1 2 2 2 2 2 2 1 2 2 2 1 3 3 2 2 2 2 2 2 3 3 4 4 3 3 4 3 4 7 7 7 8 8 8 8 9 10 11 12 12 12 13
1 1 1 2 2 2 1 1 2 2 2 2 2 3 3 2 2 2 2 2 2 3 3 3 4 3 4 3 3 5 5 5 6 7 7 7 8 8 9 11 11 11 12
1 1 2 1 2 1 1 2 1 2 3 3 1 2 3 3 4 3 2 2 2 3 3 3 3 3 3 3 2 1 3 4 5 6 7 7 7 7 8 9 10 11 11
1 1 1 1 2 1 1 2 2 3 3 4 3 2 2 3 5 5 4 3 3 2 2 3 3 3 3 3 3 2 3 3 4 5 5 5 6 6 7 7 9 10 10
1 1 1 1 2 1 2 3 3 4 3 4 4 4 3 3 3 4 5 5 4 3 2 2 3 3 3 3 2 3 2 3 3 3 4 4 5 5 6 7 7 8 9
1 1 1 1 1 1 2 3 3 4 4 4 5 4 4 4 4 4 5 5 5 4 3 3 3 3 3 2 1 4 4 4 4 4 4 4 5 5 6 6 7 7 8
0 1 1 2 2 3 3 3 4 4 3 4 5 5 5 4 4 4 4 5 6 5 3 3 2 2 2 2 0 4 4 5 5 5 5 5 4 4 5 5 5 6 6
2 2 2 3 3 4 4 4 3 4 4 5 5 5 5 4 4 4 4 4 5 6 5 2 2 2 2 2 1 4 3 4 5 6 6 6 5 5 4 4 4 4 5
2 3 3 4 4 4 4 5 5 4 5 5 4 5 5 5 4 4 4 4 4 5 6 3 3 2 2 3 3 4 4 5 6 7 7 7 6 6 6 5 5 5 5
3 4 4 4 5 5 4 5 6 5 5 5 5 5 5 5 5 5 4 4 5 5 6 5 3 2 3 5 3 4 5 5 4 8 7 7 7 6 6 6 6 6 6
4 4 4 5 5 5 5 6 6 6 6 6 6 6 6 5 5 6 5 5 5 5 6 6 5 4 4 5 4 6 5 4 4 6 8 7 7 7 7 7 6 7 6
4 5 5 5 6 5 6 6 6 6 6 6 6 6 6 6 6 5 6 6 5 5 5 6 6 4 4 3 5 5 5 4 5 5 8 9 8 7 7 7 6 6 6
5 5 5 5 6 6 6 6 6 7 7 7 6 7 7 7 7 7 6 6 6 6 6 6 5 5 4 3 4 4 4 4 4 4 3 4 7 9 9 8 8 7 6
5 4 5 5 5 6 5 5 6 7 7 7 7 7 7 6 6 6 6 5 6 6 6 6 5 5 4 3 4 4 5 4 4 4 4 4 5 6 7 9 9 8 7
5 4 5 5 6 5 1 3 7 7 7 8 8 8 7 7 7 8 8 8 8 8 7 7 6 5 5 5 4 5 5 5 5 3 4 5 4 5 4 4 6 8 8
5 5 6 6 6 4 2 4 6 8 8 7 7 7 7 5 6 7 7 9 10 10 10 9 8 7 6 5 5 7 5 6 6 3 4 6 4 5 5 3 7 8 8
5 5 6 6 6 4 3 5 6 8 8 7 7 7 7 6 5 6 7 7 8 8 9 9 8 8 7 5 5 7 7 7 7 5 5 6 5 5 5 4 8 9 9
5 5 5 6 6 4 3 4 6 7 6 7 7 6 7 7 3 4 7 8 8 7 7 8 8 7 6 6 6 6 6 6 6 5 4 6 5 5 5 5 5 10 10
5 6 5 5 6 6 4 5 6 6 6 6 5 6 4 5 2 4 7 8 8 7 6 5 6 8 9 9 10 8 7 7 6 5 3 4 5 5 5 4 4 5 6
Wind_Direction
149 147 149 171 178 153 173 185 198 203 222 217 228 224 249 248 244 244 154 169 188 204 213 219 220 223 227 231 231 231 227 226 224 222 222 225 224 222 221 221 221 222 218
140 153 169 182 188 178 160 220 217 221 234 238 241 239 249 251 239 249 231 177 189 202 213 221 225 228 229 231 232 233 231 228 225 222 221 222 225 225 224 223 222 220 218
151 174 175 183 170 181 185 229 239 237 227 225 233 241 239 245 249 246 252 240 200 196 205 216 222 227 230 230 231 232 233 230 226 224 225 224 226 226 226 225 224 222 220
174 197 185 175 172 203 213 208 225 243 246 253 251 257 243 232 243 243 242 236 240 225 199 204 216 222 230 235 236 236 236 234 230 227 226 227 228 228 227 228 226 224 221
178 210 195 124 213 219 233 249 152 272 266 269 256 241 249 242 247 246 248 246 237 241 237 191 202 215 228 239 242 242 239 235 232 230 228 228 228 227 228 229 227 227 223
183 224 187 189 227 211 220 254 269 256 271 275 280 282 265 259 251 247 248 238 231 236 240 242 213 206 212 227 239 246 246 243 238 236 233 230 228 226 226 228 227 226 225
175 230 242 181 230 208 219 236 256 240 254 278 271 265 244 229 235 239 244 259 246 243 240 244 249 254 208 204 221 237 244 246 243 239 237 234 231 228 226 228 230 229 227
225 218 231 236 211 211 208 234 249 281 276 265 288 286 267 218 211 235 247 245 264 258 244 238 245 244 261 243 187 209 234 247 248 245 239 237 236 232 230 229 229 229 228
227 278 235 249 236 244 188 234 250 268 289 280 286 300 301 326 318 218 243 258 269 278 266 253 239 237 242 251 242 195 211 242 252 251 244 242 241 236 233 230 227 227 226
205 222 236 228 247 259 225 249 219 258 267 276 245 255 293 318 297 295 239 230 242 255 271 273 265 241 238 247 228 217 192 232 248 253 251 248 247 241 236 234 230 227 224
201 216 216 214 226 251 260 276 264 261 267 279 286 275 267 252 256 278 292 294 272 259 263 262 267 266 248 240 243 178 171 218 244 253 254 251 251 246 242 238 234 230 225
185 146 200 212 228 256 244 248 253 247 268 286 286 282 276 277 281 278 281 282 286 282 270 268 262 257 253 245 234 118 173 215 232 245 249 249 253 252 250 246 238 230 226
185 135 218 224 241 241 255 261 252 271 265 267 268 277 280 282 285 285 285 291 294 283 257 246 243 249 256 256 209 163 196 211 222 236 250 253 254 250 247 246 241 233 227
244 149 215 227 235 244 253 250 256 255 255 260 266 276 277 276 277 275 280 290 288 281 264 270 271 256 274 271 171 219 218 196 211 226 240 246 246 245 242 243 243 237 227
230 216 233 234 236 240 248 253 256 262 261 260 260 253 262 270 266 271 269 271 281 291 291 270 265 258 261 267 240 256 258 185 206 222 229 236 239 239 239 240 238 239 235
260 254 249 244 240 241 242 251 254 252 257 258 264 274 273 269 270 265 264 264 268 277 285 294 282 276 292 279 215 253 257 189 212 218 223 230 233 233 234 232 231 236 236
244 240 241 247 247 246 247 251 260 259 257 259 262 259 263 276 276 272 264 263 262 267 274 282 277 266 262 270 264 262 254 245 215 200 211 221 228 232 233 232 230 229 230
244 247 251 252 252 252 254 255 259 262 259 261 263 265 266 262 261 270 271 265 265 266 269 281 282 267 253 252 254 259 257 250 253 182 197 212 222 229 228 227 225 225 225
249 256 254 257 259 261 261 260 260 262 262 263 264 264 265 265 263 265 267 269 268 263 264 267 269 271 265 259 259 255 258 265 261 197 197 206 214 221 220 218 217 219 223
248 254 257 261 263 264 265 266 264 264 263 264 265 266 265 262 263 264 261 262 268 272 266 265 267 265 257 251 255 260 256 240 257 252 228 214 204 208 212 210 210 214 219
250 253 258 262 263 260 265 276 271 262 263 265 265 265 263 269 282 277 279 275 270 267 267 265 264 264 261 254 254 258 264 259 250 255 258 242 221 223 207 205 209 211 216
254 258 257 258 258 262 335 283 275 270 265 265 266 266 261 245 243 242 258 269 271 267 271 271 266 267 263 258 262 265 267 264 263 239 264 262 252 248 238 230 183 194 211
251 253 256 256 254 251 232 252 262 269 263 264 266 267 266 259 250 254 239 237 245 249 253 262 268 267 263 256 260 258 258 266 272 270 262 268 257 253 249 218 176 194 210
253 254 257 260 261 251 212 241 262 261 266 266 264 263 266 269 267 276 273 262 256 245 241 242 252 257 262 267 254 259 268 257 251 246 250 263 264 261 258 234 180 194 207
258 258 259 260 263 259 227 233 253 263 259 265 266 263 263 264 278 291 274 268 266 261 242 240 252 257 263 255 257 260 256 255 256 244 228 257 265 267 259 242 199 195 206
265 268 266 263 265 267 231 221 241 264 265 266 259 257 252 263 266 269 269 269 267 271 275 249 234 238 243 236 226 238 251 256 263 258 226 244 262 269 263 247 237 211 215